Content
SEND FEEDBACK

Daily
Averages
Monthly
Summary
United States of America

AMBLER, ALASKA


Home > North America > United States > Alaska
Elevation: 120 feet     Latitude: 67 05N     Longitude: 157 52W

WEATHER
 
SELECT A DAY
Number of Records: 410,270;   Date Range: 1/1/95 - 7/22/14
 
SHARE

PRINT THIS DATA

[ ← Previous Day ]
WEATHER ALMANAC - JANUARY 31, 2013
[ Next Day → ]
[ °C ]   °F
Weather ElementAverageHighLow
Temperature3.8 °F6.8 °F (9:56 pm)3.2 °F (12:36 am)
Dewpoint-2.6 °F1.4 °F (10:16 pm)-5.8 °F (1:16 am)
Humidity74.6 %79 % (10:16 pm)66 % (1:16 am)
Barometer29.86 in30.03 in (11:56 pm)29.74 in (12:36 am)
Wind Speed6.6 mph11.5 mph (8:36 am)
Wind Gust18.4 mph (8:56 am)
Weather ElementAverage
Visibility6.2 mi
Wind DirectionNNE (38.8 °)

Weather ElementTotal
Precipitation---
Heating Degree Days60 (Base 65)
Averaged from 69 records on January 31, 2013
WEATHER CONDITIONS BREAKOUT
WIND DIRECTION BREAKOUT
WEATHER BY HOUR - JANUARY 31, 2013
[ °C ]   °F
Local TimeTemperatureDewpointHumidityBarometerVisibilityWind DirectionWind SpeedGust SpeedPrecipitationEventsConditions
12:36 AM3.2 °F-2.2 °F78 %29.74 in4.0 miNE (40°)8.1 mph16.1 mphOvercast
12:56 AM3.2 °F-2.2 °F78 %29.74 in5.0 miNNE (30°)8.1 mphOvercast
1:16 AM3.2 °F-5.8 °F66 %29.74 in10.0 miNNE (20°)8.1 mphOvercast
1:36 AM3.2 °F-5.8 °F66 %29.74 in10.0 miNE (40°)9.2 mphOvercast
1:56 AM3.2 °F-4.0 °F72 %29.74 in10.0 miNNE (30°)10.4 mphOvercast
2:16 AM3.2 °F-5.8 °F66 %29.74 in5.0 miNE (40°)9.2 mphOvercast
2:36 AM3.2 °F-5.8 °F66 %29.75 in7.0 miNE (40°)8.1 mphOvercast
2:56 AM3.2 °F-4.0 °F72 %29.75 in5.0 miNE (40°)8.1 mphOvercast
3:16 AM3.2 °F-4.0 °F72 %29.75 in5.0 miNNE (30°)8.1 mphOvercast
3:36 AM3.2 °F-5.8 °F66 %29.76 in5.0 miNE (40°)8.1 mphOvercast
3:56 AM3.2 °F-4.0 °F72 %29.76 in2.5 miNE (40°)5.8 mphOvercast
4:16 AM3.2 °F-2.2 °F78 %29.76 in3.0 miNE (40°)8.1 mphOvercast
4:36 AM3.2 °F-4.0 °F72 %29.76 in5.0 miNNE (30°)10.4 mphOvercast
4:56 AM3.2 °F-4.0 °F72 %29.77 in10.0 miNNE (30°)6.9 mphOvercast
5:16 AM3.2 °F-4.0 °F72 %29.77 in5.0 miNE (40°)8.1 mphOvercast
5:36 AM3.2 °F-5.8 °F66 %29.77 in10.0 miNE (40°)8.1 mphOvercast
5:56 AM3.2 °F-4.0 °F72 %29.77 in8.0 miNE (40°)6.9 mphOvercast
6:16 AM3.2 °F-5.8 °F66 %29.78 in3.0 miNE (40°)5.8 mphOvercast
6:36 AM3.2 °F-4.0 °F72 %29.78 in2.0 miNNE (30°)5.8 mphOvercast
6:56 AM3.2 °F-2.2 °F78 %29.79 in3.0 miNE (40°)6.9 mphOvercast
7:16 AM3.2 °F-2.2 °F78 %29.78 in2.5 miNE (50°)6.9 mphOvercast
7:36 AM3.2 °F-2.2 °F78 %29.79 in5.0 miNE (50°)8.1 mphOvercast
7:56 AM3.2 °F-2.2 °F78 %29.79 in10.0 miNE (50°)8.1 mphOvercast
8:16 AM3.2 °F-2.2 °F78 %29.79 in10.0 miNE (40°)8.1 mphOvercast
8:36 AM3.2 °F-4.0 °F72 %29.80 in10.0 miNNE (30°)11.5 mphOvercast
8:56 AM3.2 °F-4.0 °F72 %29.80 in10.0 miNE (40°)8.1 mph18.4 mphOvercast
9:16 AM3.2 °F-4.0 °F72 %29.81 in10.0 miNNE (30°)8.1 mphOvercast
9:36 AM3.2 °F-5.8 °F66 %29.82 in10.0 miNNE (30°)8.1 mphOvercast
9:56 AM3.2 °F-4.0 °F72 %29.83 in10.0 miENE (60°)5.8 mphOvercast
10:16 AM3.2 °F-4.0 °F72 %29.84 in10.0 miNE (50°)6.9 mphOvercast
10:36 AM3.2 °F-2.2 °F78 %29.84 in5.0 miNE (50°)9.2 mphOvercast
10:56 AM3.2 °F-4.0 °F72 %29.84 in3.0 miNE (50°)8.1 mphOvercast
11:16 AM3.2 °F-2.2 °F78 %29.85 in3.0 miNE (50°)6.9 mphOvercast
11:36 AM3.2 °F-2.2 °F78 %29.85 in4.0 miNE (50°)8.1 mphOvercast
11:56 AM3.2 °F-2.2 °F78 %29.86 in4.0 miNE (50°)8.1 mphOvercast
12:16 PM3.2 °F-2.2 °F78 %29.87 in3.0 miNE (50°)6.9 mphOvercast
12:36 PM3.2 °F-2.2 °F78 %29.87 in3.0 miNE (40°)8.1 mphOvercast
12:56 PM3.2 °F-2.2 °F78 %29.88 in4.0 miNE (40°)8.1 mphOvercast
1:16 PM3.2 °F-2.2 °F78 %29.89 in9.0 miNE (50°)5.8 mphOvercast
1:36 PM3.2 °F-2.2 °F78 %29.89 in2.5 miNE (40°)6.9 mphOvercast
1:56 PM3.2 °F-2.2 °F78 %29.89 in4.0 miNE (40°)8.1 mphOvercast
2:16 PM3.2 °F-2.2 °F78 %29.90 in5.0 miNE (40°)5.8 mphMostly Cloudy
2:36 PM3.2 °F-2.2 °F78 %29.90 in10.0 miNE (40°)5.8 mphOvercast
2:56 PM5.0 °F-2.2 °F72 %29.90 in4.0 miNNE (30°)5.8 mphOvercast
3:16 PM5.0 °F-2.2 °F72 %29.91 in9.0 miNNE (30°)5.8 mphOvercast
3:36 PM5.0 °F-2.2 °F72 %29.91 in5.0 miNE (50°)5.8 mphOvercast
3:56 PM5.0 °F-2.2 °F72 %29.92 in3.0 miNE (40°)5.8 mphOvercast
4:16 PM3.2 °F-2.2 °F78 %29.92 in6.0 miNE (40°)4.6 mphOvercast
4:36 PM3.2 °F-2.2 °F78 %29.92 in10.0 miNE (40°)5.8 mphOvercast
5:16 PM3.2 °F-2.2 °F78 %29.93 in10.0 miNE (50°)5.8 mphOvercast
5:36 PM3.2 °F-2.2 °F78 %29.92 in8.0 miNE (50°)5.8 mphOvercast
6:16 PM3.2 °F-2.2 °F78 %29.94 in10.0 miNE (40°)8.1 mphOvercast
6:36 PM3.2 °F-2.2 °F78 %29.94 in10.0 miNE (40°)6.9 mphOvercast
6:56 PM3.2 °F-2.2 °F78 %29.94 in10.0 miNE (40°)4.6 mphOvercast
7:16 PM3.2 °F-2.2 °F78 %29.95 in10.0 miNE (40°)5.8 mphOvercast
7:36 PM3.2 °F-2.2 °F78 %29.93 in10.0 miNE (40°)8.1 mphOvercast
7:56 PM3.2 °F-2.2 °F78 %29.95 in10.0 miNE (50°)4.6 mphOvercast
8:16 PM5.0 °F-2.2 °F72 %29.96 in5.0 miNNE (30°)4.6 mphOvercast
8:36 PM5.0 °F-2.2 °F72 %29.97 in8.0 miNE (40°)4.6 mphMostly Cloudy
8:56 PM5.0 °F-0.4 °F78 %29.97 in5.0 miNE (40°)4.6 mphOvercast
9:16 PM5.0 °F-0.4 °F78 %29.98 in3.0 miNE (50°)4.6 mphOvercast
9:36 PM5.0 °F-0.4 °F78 %29.98 in3.0 miNE (40°)3.5 mphOvercast
9:56 PM6.8 °F-0.4 °F72 %29.99 in3.0 miNNE (30°)3.5 mphOvercast
10:16 PM6.8 °F1.4 °F79 %30.00 in2.5 miNNE (30°)4.6 mphOvercast
10:36 PM6.8 °F-0.4 °F72 %30.00 in2.5 miNNE (30°)3.5 mphOvercast
10:56 PM6.8 °F-0.4 °F72 %30.01 in2.5 miCalmOvercast
11:16 PM6.8 °F1.4 °F79 %30.02 in4.0 miCalmOvercast
11:36 PM6.8 °F1.4 °F79 %30.02 in5.0 miNNE (30°)4.6 mphOvercast
11:56 PM6.8 °F1.4 °F79 %30.03 in3.0 miNE (40°)3.5 mphOvercast
Hourly data recorded from PAFM, located miles away from Ambler, Alaska







STORIES FROM OUR PARTNERS